| time (UTC) | temp F | wind direction | speed MPH | gust MPH | rain 1hr in | rain 24hr in | rain mn in | humidity % | barometer mb |
| 20260509153522 | 77 | 94 | 0.0 | 2.0 | 0.00 | 0.01 | 0.00 | 1 | 1010.1 |
| 20260509152525 | 77 | 94 | 0.0 | 1.0 | 0.00 | 0.01 | 0.00 | 1 | 1010.1 |
| 20260509151542 | 77 | 94 | 0.0 | 0.0 | 0.00 | 0.01 | 0.00 | 1 | 1010.1 |
| 20260509150510 | 77 | 94 | 0.0 | 0.0 | 0.00 | 0.01 | 0.00 | 1 | 1010.1 |
| 20260509145442 | 76 | 94 | 0.0 | 0.0 | 0.00 | 0.01 | 0.00 | 1 | 1009.9 |
| 20260509144421 | 76 | 94 | 0.0 | 2.0 | 0.00 | 0.01 | 0.00 | 1 | 1009.9 |
| 20260509143442 | 76 | 94 | 0.0 | 0.0 | 0.00 | 0.01 | 0.00 | 1 | 1009.7 |
| 20260509142413 | 76 | 94 | 0.0 | 0.0 | 0.00 | 0.01 | 0.00 | 1 | 1009.6 |
| 20260509141408 | 76 | 94 | 0.0 | 0.0 | 0.00 | 0.01 | 0.00 | 1 | 1009.3 |
| 20260509135248 | 76 | 94 | 0.0 | 0.0 | 0.00 | 0.01 | 0.00 | 1 | 1009.5 |
| 20260509134243 | 75 | 94 | 0.0 | 0.0 | 0.00 | 0.01 | 0.00 | 1 | 1009.7 |
| 20260509133305 | 75 | 94 | 0.0 | 0.0 | 0.00 | 0.01 | 0.00 | 1 | 1009.9 |
| 20260509131118 | 75 | 180 | 0.0 | 0.0 | 0.00 | 0.01 | 0.00 | 1 | 1010.0 |
| 20260509130141 | 75 | 180 | 0.0 | 0.0 | 0.00 | 0.01 | 0.00 | 1 | 1009.8 |
| 20260509124035 | 75 | 131 | 0.0 | 0.0 | 0.00 | 0.01 | 0.00 | 1 | 1009.8 |
| 20260509123013 | 74 | 131 | 0.0 | 0.0 | 0.00 | 0.01 | 0.00 | 1 | 1009.9 |
| 20260509122030 | 74 | 131 | 0.0 | 0.0 | 0.00 | 0.01 | 0.00 | 1 | 1009.7 |
| 20260509115918 | 74 | 131 | 0.0 | 1.0 | 0.00 | 0.01 | 0.00 | 1 | 1009.5 |
| 20260509114934 | 74 | 131 | 0.0 | 0.0 | 0.00 | 0.01 | 0.00 | 1 | 1009.3 |
| 20260509113944 | 74 | 131 | 0.0 | 0.0 | 0.00 | 0.01 | 0.00 | 1 | 1009.1 |
| 20260509112912 | 74 | 131 | 0.0 | 0.0 | 0.00 | 0.01 | 0.00 | 1 | 1009.2 |
| 20260509111844 | 74 | 131 | 0.0 | 0.0 | 0.00 | 0.01 | 0.00 | 1 | 1009.2 |
| 20260509110901 | 74 | 131 | 0.0 | 0.0 | 0.00 | 0.01 | 0.00 | 1 | 1009.1 |
| 20260509105914 | 74 | 131 | 0.0 | 0.0 | 0.00 | 0.01 | 0.00 | 1 | 1009.4 |
| 20260509104919 | 74 | 131 | 0.0 | 0.0 | 0.00 | 0.01 | 0.00 | 1 | 1009.4 |
| 20260509103943 | 74 | 131 | 0.0 | 0.0 | 0.00 | 0.01 | 0.00 | 1 | 1009.6 |
| 20260509101833 | 74 | 131 | 0.0 | 0.0 | 0.00 | 0.01 | 0.00 | 1 | 1009.3 |
| 20260509100818 | 74 | 131 | 0.0 | 0.0 | 0.00 | 0.01 | 0.00 | 1 | 1009.0 |
| 20260509095755 | 74 | 131 | 0.0 | 0.0 | 0.00 | 0.01 | 0.00 | 1 | 1008.6 |
| 20260509093612 | 74 | 131 | 0.0 | 0.0 | 0.00 | 0.01 | 0.00 | 1 | 1008.8 |
| 20260509092541 | 74 | 131 | 0.0 | 0.0 | 0.00 | 0.01 | 0.00 | 1 | 1009.1 |
| 20260509091603 | 74 | 131 | 0.0 | 0.0 | 0.00 | 0.01 | 0.00 | 1 | 1009.0 |
| 20260509090539 | 74 | 131 | 0.0 | 0.0 | 0.00 | 0.01 | 0.00 | 1 | 1009.1 |
| 20260509085505 | 74 | 131 | 0.0 | 0.0 | 0.00 | 0.01 | 0.00 | 1 | 1009.3 |
| 20260509083332 | 74 | 131 | 0.0 | 0.0 | 0.00 | 0.01 | 0.00 | 1 | 1009.3 |
| 20260509082332 | 74 | 131 | 0.0 | 0.0 | 0.00 | 0.01 | 0.00 | 1 | 1009.4 |
| 20260509081357 | 74 | 131 | 0.0 | 0.0 | 0.00 | 0.01 | 0.00 | 1 | 1009.4 |
| 20260509080339 | 74 | 131 | 0.0 | 0.0 | 0.00 | 0.01 | 0.00 | 1 | 1009.1 |
| 20260509075309 | 74 | 131 | 0.0 | 0.0 | 0.00 | 0.01 | 0.00 | 1 | 1009.3 |
| 20260509074321 | 74 | 131 | 0.0 | 0.0 | 0.00 | 0.01 | 0.00 | 1 | 1009.1 |
| 20260509073303 | 74 | 131 | 0.0 | 0.0 | 0.00 | 0.01 | 0.00 | 1 | 1009.0 |
| 20260509072312 | 74 | 131 | 0.0 | 0.0 | 0.00 | 0.01 | 0.00 | 1 | 1009.2 |
| 20260509071321 | 74 | 131 | 0.0 | 0.0 | 0.00 | 0.01 | 0.00 | 1 | 1009.2 |
| 20260509070318 | 74 | 127 | 0.0 | 0.0 | 0.00 | 0.01 | 0.00 | 1 | 1009.1 |
| 20260509065337 | 74 | 39 | 0.0 | 0.0 | 0.00 | 0.01 | 0.00 | 1 | 1009.3 |
| 20260509064401 | 74 | 147 | 0.0 | 0.0 | 0.00 | 0.01 | 0.00 | 1 | 1009.2 |
| 20260509063336 | 73 | 117 | 0.0 | 0.0 | 0.00 | 0.01 | 0.00 | 1 | 1009.2 |
| 20260509062314 | 73 | 117 | 0.0 | 0.0 | 0.00 | 0.01 | 0.00 | 1 | 1009.3 |
| 20260509061333 | 74 | 117 | 0.0 | 0.0 | 0.00 | 0.01 | 0.00 | 1 | 1009.6 |
| 20260509060353 | 74 | 117 | 0.0 | 0.0 | 0.00 | 0.01 | 0.00 | 1 | 1009.7 |
| 20260509055411 | 73 | 117 | 0.0 | 0.0 | 0.00 | 0.01 | 0.00 | 1 | 1009.7 |
| 20260509054416 | 73 | 117 | 0.0 | 1.0 | 0.00 | 0.01 | 0.00 | 1 | 1009.8 |
| 20260509053426 | 73 | 117 | 0.0 | 0.0 | 0.00 | 0.01 | 0.00 | 1 | 1009.8 |
| 20260509052422 | 73 | 117 | 0.0 | 0.0 | 0.00 | 0.01 | 0.00 | 1 | 1009.8 |
| 20260509051414 | 73 | 119 | 0.0 | 3.0 | 0.00 | 0.01 | 0.00 | 1 | 1009.8 |
| 20260509050356 | 73 | 28 | 0.0 | 1.0 | 0.00 | 0.01 | 0.00 | 1 | 1009.7 |
| 20260509045328 | 73 | 114 | 0.0 | 0.0 | 0.00 | 0.01 | 0.01 | 1 | 1009.9 |
| 20260509043141 | 73 | 127 | 0.0 | 2.0 | 0.00 | 0.01 | 0.01 | 1 | 1009.7 |
| 20260509042158 | 73 | 145 | 0.0 | 2.0 | 0.00 | 0.01 | 0.01 | 1 | 1009.7 |
| 20260509041129 | 73 | 126 | 0.0 | 0.0 | 0.00 | 0.01 | 0.01 | 1 | 1009.7 |
| 20260509040152 | 73 | 91 | 0.0 | 0.0 | 0.00 | 0.01 | 0.01 | 1 | 1009.8 |
| 20260509035127 | 73 | 35 | 0.0 | 2.0 | 0.00 | 0.01 | 0.01 | 1 | 1009.6 |
| 20260509032936 | 73 | 97 | 0.0 | 2.0 | 0.00 | 0.01 | 0.01 | 1 | 1009.5 |
| 20260509030831 | 74 | 53 | 0.0 | 2.0 | 0.00 | 0.01 | 0.01 | 1 | 1009.4 |
| 20260509025758 | 74 | 71 | 0.0 | 1.0 | 0.00 | 0.01 | 0.01 | 1 | 1009.4 |
| 20260509023643 | 74 | 5 | 0.0 | 2.0 | 0.00 | 0.01 | 0.01 | 1 | 1009.1 |
| 20260509020314 | 75 | 102 | 0.0 | 0.0 | 0.00 | 0.00 | 0.00 | 1 | 1009.0 |
| 20260509015306 | 75 | 102 | 0.0 | 1.0 | 0.00 | 0.00 | 0.00 | 2 | 1008.8 |
| 20260509013206 | 75 | 102 | 0.0 | 1.0 | 0.00 | 0.00 | 0.00 | 6 | 1009.0 |
| 20260509012146 | 75 | 102 | 0.0 | 0.0 | 0.00 | 0.00 | 0.00 | 9 | 1008.7 |
| 20260509011114 | 76 | 101 | 0.0 | 3.0 | 0.00 | 0.00 | 0.00 | 11 | 1008.7 |
| 20260509005123 | 76 | 306 | 0.0 | 0.0 | 0.00 | 0.00 | 0.00 | 14 | 1008.4 |
| 20260509004106 | 76 | 151 | 0.0 | 4.0 | 0.00 | 0.00 | 0.00 | 15 | 1008.3 |
| 20260509003039 | 76 | 144 | 0.0 | 6.0 | 0.00 | 0.00 | 0.00 | 17 | 1008.4 |
| 20260509002043 | 77 | 136 | 0.0 | 6.0 | 0.00 | 0.00 | 0.00 | 19 | 1008.7 |
| 20260509001040 | 77 | 192 | 0.0 | 2.0 | 0.00 | 0.00 | 0.00 | 21 | 1008.7 |
| 20260509000032 | 77 | 173 | 0.0 | 3.0 | 0.00 | 0.00 | 0.00 | 23 | 1008.6 |
| 20260508233905 | 77 | 146 | 0.0 | 2.0 | 0.00 | 0.00 | 0.00 | 25 | 1008.7 |
| 20260508232859 | 78 | 284 | 0.0 | 1.0 | 0.00 | 0.00 | 0.00 | 26 | 1008.7 |
| 20260508231913 | 78 | 136 | 0.0 | 0.0 | 0.00 | 0.00 | 0.00 | 27 | 1008.6 |
| 20260508225805 | 78 | 136 | 0.0 | 1.0 | 0.00 | 0.00 | 0.00 | 32 | 1008.6 |
| 20260508224736 | 78 | 136 | 0.0 | 3.0 | 0.00 | 0.00 | 0.00 | 34 | 1008.7 |
| 20260508223725 | 79 | 145 | 0.0 | 3.0 | 0.00 | 0.00 | 0.00 | 35 | 1008.6 |
| 20260508222703 | 79 | 144 | 0.0 | 3.0 | 0.00 | 0.00 | 0.00 | 35 | 1008.5 |
| 20260508221726 | 79 | 125 | 0.0 | 1.0 | 0.00 | 0.00 | 0.00 | 35 | 1008.6 |
| 20260508220732 | 79 | 125 | 0.0 | 0.0 | 0.00 | 0.00 | 0.00 | 40 | 1008.8 |
| 20260508214630 | 80 | 134 | 0.0 | 3.0 | 0.00 | 0.00 | 0.00 | 44 | 1008.8 |
| 20260508213653 | 80 | 150 | 0.0 | 2.0 | 0.00 | 0.00 | 0.00 | 44 | 1008.7 |
| 20260508212640 | 80 | 152 | 0.0 | 1.0 | 0.00 | 0.00 | 0.00 | 43 | 1009.0 |
| 20260508211616 | 80 | 123 | 0.0 | 2.0 | 0.00 | 0.00 | 0.00 | 46 | 1009.0 |
| 20260508210622 | 80 | 88 | 0.0 | 1.0 | 0.00 | 0.00 | 0.00 | 47 | 1009.1 |
| 20260508205605 | 80 | 335 | 0.0 | 2.0 | 0.00 | 0.00 | 0.00 | 48 | 1009.2 |
| 20260508204608 | 80 | 57 | 0.0 | 3.0 | 0.00 | 0.00 | 0.00 | 48 | 1009.3 |
| 20260508203536 | 80 | 109 | 0.0 | 4.0 | 0.00 | 0.00 | 0.00 | 41 | 1009.3 |
| 20260508201440 | 78 | 333 | 0.0 | 4.0 | 0.00 | 0.00 | 0.00 | 39 | 1009.5 |
| 20260508195335 | 78 | 336 | 1.0 | 5.0 | 0.00 | 0.00 | 0.00 | 44 | 1009.8 |
| 20260508194328 | 78 | 132 | 0.0 | 2.0 | 0.00 | 0.00 | 0.00 | 44 | 1009.8 |
| 20260508193306 | 78 | 136 | 0.0 | 1.0 | 0.00 | 0.00 | 0.00 | 41 | 1010.0 |
| 20260508191154 | 77 | 144 | 0.0 | 4.0 | 0.00 | 0.00 | 0.00 | 42 | 1010.4 |
| 20260508190212 | 77 | 117 | 0.0 | 1.0 | 0.00 | 0.00 | 0.00 | 39 | 1010.3 |
| 20260508185149 | 77 | 210 | 0.0 | 3.0 | 0.00 | 0.00 | 0.00 | 38 | 1010.4 |
| 20260508184153 | 76 | 351 | 0.0 | 3.0 | 0.00 | 0.00 | 0.00 | 37 | 1010.6 |
| 20260508182028 | 75 | 331 | 0.0 | 3.0 | 0.00 | 0.00 | 0.00 | 31 | 1010.5 |
| 20260508181011 | 74 | 130 | 0.0 | 4.0 | 0.00 | 0.00 | 0.00 | 32 | 1010.6 |
| 20260508180003 | 74 | 132 | 0.0 | 4.0 | 0.00 | 0.00 | 0.00 | 32 | 1010.8 |
| 20260508174949 | 74 | 130 | 0.0 | 2.0 | 0.00 | 0.00 | 0.00 | 34 | 1011.3 |
| 20260508173951 | 74 | 130 | 0.0 | 2.0 | 0.00 | 0.00 | 0.00 | 36 | 1011.5 |
| 20260508173005 | 74 | 138 | 0.0 | 2.0 | 0.00 | 0.00 | 0.00 | 36 | 1011.6 |
| 20260508172000 | 74 | 139 | 0.0 | 0.0 | 0.00 | 0.00 | 0.00 | 37 | 1011.4 |
| 20260508171015 | 74 | 154 | 0.0 | 4.0 | 0.00 | 0.00 | 0.00 | 39 | 1011.3 |
| 20260508165954 | 74 | 159 | 0.0 | 3.0 | 0.00 | 0.00 | 0.00 | 38 | 1011.4 |
| 20260508163816 | 73 | 130 | 0.0 | 5.0 | 0.00 | 0.00 | 0.00 | 39 | 1011.9 |
| 20260508162802 | 73 | 20 | 0.0 | 5.0 | 0.00 | 0.00 | 0.00 | 38 | 1011.9 |
| 20260508160545 | 73 | 305 | 0.0 | 5.0 | 0.00 | 0.00 | 0.00 | 33 | 1011.9 |
| 20260508155608 | 72 | 332 | 0.0 | 3.0 | 0.00 | 0.00 | 0.00 | 26 | 1012.1 |
| 20260508154602 | 71 | 132 | 0.0 | 5.0 | 0.00 | 0.00 | 0.00 | 27 | 1012.4 |